Rantoul, IL

7:56 PM CDT on August 16, 2017 (GMT -0500)
Rantoul

Weather History for KTIP - September, 2013

Change the Weather History Date:

Wednesday, September 11, 2013

  Actual Average (KCMI) Record (KCMI)
Temperature  
Mean Temperature 85 °F -  
Max Temperature 97 °F 78 °F 95 °F (2013)
Min Temperature 73 °F 53 °F 48 °F (1998)
Cooling Degree Days 20    
Growing Degree Days 35 (Base 50)    
Moisture  
Dew Point 62 °F    
Average Humidity 50    
Maximum Humidity 85    
Minimum Humidity 24    
Precipitation  
Precipitation 0.00 in - - ()
Sea Level Pressure  
Sea Level Pressure 30.07 in    
Wind  
Wind Speed 7 mph (WSW)    
Max Wind Speed 18 mph    
Max Gust Speed 23 mph    
Visibility 9 miles    
Events      
Averages and records for this station are not official NWS values.
T = Trace of Precipitation, MM = Missing Value Source: NWS Daily Summary

Daily Weather History Graph

Daily Weather History Graph

Search for Another Location

Airport or City:

Trip Planner

Search our weather history database for the weather conditions in past years. The results will help you decide how hot, cold, wet, or windy it might be!

Date:

Astronomy

Sep. 11, 2013 Rise Set
Actual Time 6:29 AM CDT 7:07 PM CDT
Civil Twilight 6:02 AM CDT 7:35 PM CDT
Nautical Twilight 5:29 AM CDT 8:07 PM CDT
Astronomical Twilight 4:56 AM CDT 8:40 PM CDT
Moon 12:58 PM CDT (9/11) 11:02 PM CDT (9/11)
Length of Visible Light 13h 32m
Length of Day
12h 37m
Waxing Crescent, 39% of the Moon is Illuminated
Sep 11
Waxing Crescent
Sep 12
First Quarter
Sep 19
Full
Sep 26
Last Quarter
Oct 4
New

Hourly Weather History & Observations

Time (CDT) Temp. Heat Index Dew Point Humidity Pressure Visibility Wind Dir Wind Speed Gust Speed Precip Events Conditions
12:15 AM 74.7 °F - 68.5 °F 81% 30.09 in 7.0 mi South 4.6 mph - N/A   Clear
12:35 AM 75.2 °F - 68.9 °F 81% 30.08 in 7.0 mi South 5.8 mph - N/A   Clear
12:55 AM 75.7 °F - 68.9 °F 79% 30.08 in 7.0 mi South 6.9 mph - N/A   Clear
1:55 AM 74.5 °F - 68.9 °F 83% 30.08 in 7.0 mi SSW 3.5 mph - N/A   Clear
2:15 AM 76.3 °F - 69.1 °F 78% 30.09 in 10.0 mi South 6.9 mph - N/A   Clear
2:35 AM 73.4 °F - 68.4 °F 84% 30.09 in 7.0 mi South 3.5 mph - N/A   Clear
3:15 AM 74.5 °F - 69.1 °F 83% 30.08 in 7.0 mi SSW 3.5 mph - N/A   Clear
3:35 AM 75.7 °F - 69.4 °F 81% 30.09 in 7.0 mi SSW 5.8 mph - N/A   Clear
4:15 AM 74.7 °F - 69.3 °F 83% 30.09 in 7.0 mi South 5.8 mph - N/A   Clear
4:35 AM 73.9 °F - 69.1 °F 85% 30.09 in 5.0 mi South 3.5 mph - N/A   Haze
4:55 AM 73.9 °F - 68.9 °F 84% 30.10 in 7.0 mi SSW 3.5 mph - N/A   Clear
5:15 AM 73.9 °F - 69.1 °F 85% 30.10 in 5.0 mi SW 5.8 mph - N/A   Haze
6:55 AM - - - N/A% 30.12 in 5.0 mi Calm Calm - N/A   Clear
7:15 AM 73.0 °F - 68.0 °F 84% 30.12 in 5.0 mi SW 5.8 mph - N/A   Haze
7:35 AM 74.3 °F - 68.0 °F 81% 30.12 in 7.0 mi SSW 6.9 mph - N/A   Clear
8:35 AM 79.2 °F - 67.5 °F 67% 30.13 in 10.0 mi SW 6.9 mph - N/A   Clear
9:15 AM 83.3 °F 85.1 °F 65.1 °F 54% 30.13 in 10.0 mi SW 8.1 mph - N/A   Clear
9:35 AM 85.3 °F 86.8 °F 64.8 °F 50% 30.12 in 10.0 mi WSW 8.1 mph - N/A   Clear
9:55 AM 87.1 °F 88.3 °F 63.9 °F 46% 30.12 in 10.0 mi West 9.2 mph - N/A   Clear
10:15 AM 88.3 °F 88.9 °F 62.6 °F 42% 30.12 in 10.0 mi WSW 11.5 mph - N/A   Clear
10:55 AM 90.7 °F 91.3 °F 62.4 °F 39% 30.11 in 10.0 mi West 10.4 mph - N/A   Clear
11:15 AM 91.9 °F 91.8 °F 60.8 °F 35% 30.11 in 10.0 mi West 10.4 mph - N/A   Clear
11:35 AM 93.0 °F 93.0 °F 60.4 °F 34% 30.10 in 10.0 mi West 10.4 mph - N/A   Clear
11:55 AM 93.4 °F 92.8 °F 59.2 °F 32% 30.09 in 10.0 mi WSW 11.5 mph 19.6 mph N/A   Clear
12:15 PM 94.6 °F 93.9 °F 59.0 °F 30% 30.09 in 10.0 mi WSW 13.8 mph - N/A   Unknown
12:35 PM 95.4 °F 94.2 °F 57.6 °F 28% 30.09 in 10.0 mi West 10.4 mph 21.9 mph N/A   Unknown
12:55 PM 96.1 °F 94.8 °F 56.8 °F 27% 30.09 in 10.0 mi West 16.1 mph - N/A   Unknown
1:15 PM 96.4 °F 94.6 °F 55.8 °F 25% 30.08 in 10.0 mi West 15.0 mph 21.9 mph N/A   Unknown
1:35 PM 96.1 °F 94.5 °F 56.1 °F 26% 30.08 in 10.0 mi West 15.0 mph 18.4 mph N/A   Unknown
1:55 PM 96.6 °F 95.2 °F 56.5 °F 26% 30.07 in 10.0 mi West 12.7 mph 18.4 mph N/A   Unknown
2:15 PM 96.4 °F 94.3 °F 54.3 °F 24% 30.07 in 10.0 mi WSW 13.8 mph 18.4 mph N/A   Unknown
2:35 PM 97.2 °F 95.2 °F 54.3 °F 24% 30.06 in 10.0 mi West 18.4 mph 23.0 mph N/A   Unknown
2:55 PM 97.2 °F 95.2 °F 54.5 °F 24% 30.06 in 10.0 mi WSW 16.1 mph 23.0 mph N/A   Unknown
3:15 PM 96.6 °F 94.8 °F 55.6 °F 25% 30.05 in 10.0 mi West 16.1 mph - N/A   Unknown
3:35 PM 97.0 °F 95.0 °F 54.9 °F 24% 30.05 in 10.0 mi WSW 13.8 mph 18.4 mph N/A   Unknown
3:55 PM 96.4 °F 94.6 °F 55.0 °F 25% 30.04 in 10.0 mi WSW 10.4 mph 21.9 mph N/A   Unknown
4:15 PM 96.6 °F 95.2 °F 55.9 °F 26% 30.04 in 10.0 mi WSW 12.7 mph 17.3 mph N/A   Unknown
4:35 PM 96.3 °F 94.4 °F 55.6 °F 25% 30.03 in 10.0 mi WSW 17.3 mph 23.0 mph N/A   Unknown
4:55 PM 95.2 °F 93.0 °F 54.7 °F 25% 30.03 in 10.0 mi WSW 13.8 mph 20.7 mph N/A   Unknown
5:35 PM 94.1 °F 92.2 °F 54.9 °F 27% 30.04 in 10.0 mi WSW 10.4 mph 19.6 mph N/A   Unknown
5:55 PM 93.2 °F 91.3 °F 55.8 °F 28% 30.04 in 10.0 mi West 6.9 mph - N/A   Unknown
6:15 PM 91.8 °F 90.0 °F 56.3 °F 30% 30.04 in 10.0 mi WSW 8.1 mph - N/A   Unknown
6:55 PM 88.2 °F 87.3 °F 58.5 °F 37% 30.04 in 10.0 mi WSW 8.1 mph - N/A   Unknown
7:15 PM 87.3 °F 86.7 °F 59.5 °F 39% 30.03 in 10.0 mi WSW 6.9 mph - N/A   Clear
7:35 PM 85.8 °F 85.9 °F 60.6 °F 43% 30.04 in 10.0 mi WSW 5.8 mph - N/A   Clear
7:55 PM 84.4 °F 84.8 °F 61.7 °F 46% 30.04 in 10.0 mi NW 4.6 mph - N/A   Clear
8:15 PM 84.0 °F 84.5 °F 61.9 °F 47% 30.05 in 10.0 mi West 4.6 mph - N/A   Clear
8:35 PM 83.8 °F 84.5 °F 62.4 °F 48% 30.06 in 10.0 mi NW 4.6 mph - N/A   Clear
8:55 PM 84.0 °F 85.2 °F 63.5 °F 50% 30.06 in 10.0 mi Calm Calm - N/A   Clear
9:15 PM 82.0 °F 83.3 °F 63.1 °F 53% 30.05 in 10.0 mi Calm Calm - N/A   Clear
9:55 PM 79.5 °F - 64.9 °F 61% 30.05 in 10.0 mi WSW 3.5 mph - N/A   Scattered Clouds
10:15 PM 79.7 °F - 65.3 °F 61% 30.05 in 10.0 mi Calm Calm - N/A   Scattered Clouds
10:55 PM 80.1 °F 82.0 °F 65.3 °F 61% 30.03 in 10.0 mi Calm Calm - N/A   Clear
11:15 PM 81.1 °F 83.2 °F 65.8 °F 60% 30.04 in 10.0 mi NW 5.8 mph - N/A   Mostly Cloudy
11:55 PM 80.4 °F 82.8 °F 67.1 °F 64% 30.04 in 10.0 mi NNW 8.1 mph - N/A   Scattered Clouds